EW8241 Weather Reports


time (UTC)temp
F
wind
direction
speed
knots
gust
knots
rain 1hr
in
rain 24hr
in
rain mn
in
humidity
%
barometer
mb
20260504034536 58 0.0 0.0 0.00 0.00 0.00 70 1013.4
20260504033516 58 0.0 0.0 0.00 0.00 0.00 70 1013.5
20260504032516 58 0.0 0.0 0.00 0.00 0.00 71 1013.5
20260504031516 58 0.0 0.0 0.00 0.00 0.00 70 1013.6
20260504030516 58 0.0 0.0 0.00 0.00 0.00 70 1013.6
20260504025536 58 0.0 0.0 0.00 0.00 0.00 70 1013.6
20260504024516 58 0.0 0.0 0.00 0.00 0.00 69 1013.6
20260504023516 59 0.0 0.0 0.00 0.00 0.00 69 1013.6
20260504022516 59 0.0 0.0 0.00 0.00 0.00 67 1013.9
20260504021535 59 0.0 0.0 0.00 0.00 0.00 67 1014.0
20260504020516 59 0.0 0.0 0.00 0.00 0.00 66 1014.0
20260504015515 59 0.0 0.0 0.00 0.00 0.00 65 1013.8
20260504014516 59 0.0 0.0 0.00 0.00 0.00 65 1013.9
20260504013515 59 0.0 0.0 0.00 0.00 0.00 65 1014.0
20260504012515 59 0.0 1.7 0.00 0.00 0.00 65 1013.9
20260504011516 59 0.0 0.0 0.00 0.00 0.00 64 1014.0
20260504010535 59 0.0 0.0 0.00 0.00 0.00 64 1014.1
20260504005515 59 0.0 0.0 0.00 0.00 0.00 64 1014.2
20260504004535 59 0.0 0.9 0.00 0.00 0.00 65 1014.3
20260504003515 60 0.0 0.0 0.00 0.00 0.00 64 1014.2
20260504002515 60 0.0 1.7 0.00 0.00 0.00 63 1014.3
20260504001515 60 0.0 0.9 0.00 0.00 0.00 61 1014.3
20260504000536 60 0.0 1.7 0.00 0.00 0.00 61 1014.4
20260503235516 61 0.0 0.9 0.00 0.00 0.00 59 1014.5
20260503234515 61 0.0 0.0 0.00 0.00 0.00 59 1014.5
20260503233536 61 0.0 0.0 0.00 0.00 0.00 58 1014.5
20260503232516 61 0.0 0.0 0.00 0.00 0.00 57 1014.5
20260503231556 61 0.0 1.7 0.00 0.00 0.00 59 1014.4
20260503230516 61 0.0 0.0 0.00 0.00 0.00 62 1014.3
20260503225515 61 0.0 0.9 0.00 0.00 0.00 62 1014.2
20260503224515 61 0.0 1.7 0.00 0.00 0.00 62 1014.1
20260503223515 61 0.0 5.2 0.00 0.00 0.00 61 1014.3
20260503222516 61 0.0 6.1 0.00 0.00 0.00 61 1014.2
20260503221515 62 225 0.9 6.1 0.00 0.00 0.00 60 1014.2
20260503220515 62 225 1.7 7.0 0.00 0.00 0.00 59 1014.2
20260503215517 62 225 0.9 6.1 0.00 0.00 0.00 59 1014.3
20260503214517 62 0.0 0.9 0.00 0.00 0.00 58 1014.2
20260503213517 63 0.0 3.5 0.00 0.00 0.00 57 1014.3
20260503212537 63 0.0 0.9 0.00 0.00 0.00 57 1014.1
20260503211517 63 0.0 6.1 0.00 0.00 0.00 56 1014.0
20260503210517 63 293 0.9 4.3 0.00 0.00 0.00 56 1014.0
20260503205517 64 0.0 1.7 0.00 0.00 0.00 56 1013.8
20260503204537 64 0.0 0.0 0.00 0.00 0.00 55 1013.7
20260503203517 65 0.0 0.9 0.00 0.00 0.00 53 1013.6
20260503202537 65 0.0 1.7 0.00 0.00 0.00 52 1013.5
20260503201517 65 225 0.9 5.2 0.00 0.00 0.00 52 1013.3
20260503200517 65 0.0 2.6 0.00 0.00 0.00 52 1013.1
20260503195517 65 0.0 4.3 0.00 0.00 0.00 53 1012.8
20260503194517 65 0.0 0.9 0.00 0.00 0.00 54 1012.7
20260503193517 65 0.0 0.9 0.00 0.00 0.00 54 1012.6
20260503192517 65 0.0 0.0 0.00 0.00 0.00 54 1012.5
20260503191517 66 0.0 0.9 0.00 0.00 0.00 54 1012.5
20260503190537 66 0.0 0.9 0.00 0.00 0.00 53 1012.4
20260503185517 67 0.0 0.0 0.00 0.00 0.00 52 1012.3
20260503184517 67 0.0 0.9 0.00 0.00 0.00 52 1012.2
20260503183517 67 0.0 0.0 0.00 0.00 0.00 53 1012.2
20260503182517 67 0.0 0.9 0.00 0.00 0.00 53 1012.2
20260503181517 68 0.0 0.9 0.00 0.00 0.00 53 1012.1
20260503180517 68 0.0 0.9 0.00 0.00 0.00 53 1012.2
20260503175517 68 0.0 4.3 0.00 0.00 0.00 53 1012.2
20260503174517 68 0.0 1.7 0.00 0.00 0.00 52 1012.2
20260503173537 69 0.0 0.9 0.00 0.00 0.00 53 1012.1
20260503172517 69 0.0 1.7 0.00 0.00 0.00 53 1012.2
20260503171517 69 0.0 0.9 0.00 0.00 0.00 53 1012.1
20260503170517 69 0.0 1.7 0.00 0.00 0.00 52 1012.2
20260503150517 70 0.0 0.9 0.00 0.00 0.00 54 1012.7
20260503130516 71 0.0 0.9 0.00 0.00 0.00 56 1013.6
20260503110536 66 0.0 0.0 0.00 0.00 0.00 70 1014.8
20260503081516 60 0.0 0.0 0.00 0.00 0.00 82 1015.2
20260503080516 60 0.0 0.0 0.00 0.00 0.00 82 1015.1
20260503072516 60 0.0 0.0 0.00 0.00 0.00 83 1014.9
20260503071516 60 0.0 0.0 0.00 0.00 0.00 82 1014.8
20260503070516 60 0.0 0.0 0.00 0.00 0.00 83 1014.6
20260503054516 58 0.0 4.3 0.00 0.00 0.00 85 1014.7
20260503053516 58 0.0 1.7 0.00 0.00 0.00 84 1014.5
20260503052516 58 0.0 3.5 0.00 0.00 0.00 84 1014.6
20260503051516 58 0.0 4.3 0.00 0.00 0.00 84 1014.6
20260503050517 59 0.0 6.1 0.00 0.00 0.00 85 1014.3
20260503045516 59 0.0 5.2 0.00 0.00 0.00 85 1014.4
20260503044516 59 0.0 0.9 0.00 0.00 0.00 86 1014.5
20260503043516 59 0.0 3.5 0.00 0.00 0.00 86 1014.5
20260503042516 59 0.0 1.7 0.00 0.00 0.00 86 1014.5
20260503041516 59 0.0 4.3 0.00 0.00 0.00 86 1014.6
20260503040516 59 0.0 3.5 0.00 0.00 0.00 86 1014.6
20260503035516 59 0.0 4.3 0.00 0.00 0.00 86 1014.3